Regional Weather Roundup
Issued by NWS

Home | Current Version | Previous Version | Graphics & Text | Print | Product List | Glossary Off
Versions: 1 2 3 4 5 6 7 8 9 10 11 12 13 14 15 16 17 18 19 20 21 22 23 24 25 26 27 28 29 30 31 32 33 34 35 36 37 38 39 40 41 42 43 44 45 46 47 48 49 50

000
ASUS43 KMKX 131520
RWRWI

WISCONSIN REGIONAL WEATHER ROUNDUP
NATIONAL WEATHER SERVICE MILWAUKEE/SULLIVAN WI
900 AM CST SAT FEB 13 2016

NOTE: "FAIR" INDICATES FEW OR NO CLOUDS BELOW 12,000 FEET WITH NO
SIGNIFICANT WEATHER AND/OR OBSTRUCTIONS TO VISIBILITY.

WIZ001-002-006>008-014>016-023>028-131600-
NORTHWEST WISCONSIN

CITY           SKY/WX    TMP DP  RH WIND       PRES   REMARKS
SUPERIOR ARPT  CLOUDY   -10 -19  64 W3        30.64S
ASHLAND        CLOUDY    -8 -15  71 SW10      30.60S WCI -26
HAYWARD        CLOUDY   -11 -18  71 CALM      30.57R
SIREN          MOSUNNY   -9 -18  65 NW5       30.61S WCI -20
CUMBERLAND     CLOUDY   -11 -20  64 NW3       30.56F
RICE LAKE      CLOUDY    -9 -18  63 CALM      30.61S
CHETEK         CLOUDY    -8 -17  62 CALM      30.60S
LADYSMITH      CLOUDY   -11 -18  70 CALM      30.57S
EAU CLAIRE     MOSUNNY   -7 -17  62 VRB3      30.62S
MENOMONIE      MOSUNNY   -1 -13  57 W3        30.63S
NEW RICHMOND   MOSUNNY   -7 -16  65 CALM      30.61S
OSCEOLA        MOSUNNY   -6 -14  65 CALM      30.66R
$$

WIZ003>005-009-010-017-018-131600-
NORTH CENTRAL WISCONSIN

CITY           SKY/WX    TMP DP  RH WIND       PRES   REMARKS
MANITOWISH WTR CLOUDY    -5 -10  79 NW10      30.45R WCI -22
ARBOR VITAE    CLOUDY    -3  -8  77 NW3       30.44R
WOODRUFF       CLOUDY    -3  -8  77 NW3       30.44R
RHINELANDER    CLOUDY    -7 -13  75 W8        30.45R WCI -23
EAGLE RIVER    CLOUDY    -6 -12  72 W9        30.42R HAZE    WCI -22
LAND O LAKES   CLOUDY    -1  -6  78 W5        30.42R HAZE    WCI -11
PHILLIPS       CLOUDY   -12 -17  77 NW3       30.51R
TOMAHAWK       CLOUDY    -6 -13  73 W9        30.50R WCI -23
MEDFORD        CLOUDY    -9 -17  69 NW6       30.51R WCI -23
MERRILL        CLOUDY   N/A N/A N/A W6        30.52R
$$

WIZ029-030-035-036-043>047-131600-
CENTRAL WISCONSIN

CITY           SKY/WX    TMP DP  RH WIND       PRES   REMARKS
WAUSAU         CLOUDY    -6 -14  68 W10       30.53R WCI -24
MOSINEE        SUNNY     -8 -15  71 NW10      30.54R WCI -26
MARSHFIELD     CLOUDY    -7 -17  62 NW10      30.53R WCI -25
STEVENS POINT  CLOUDY    -6 -15  63 NW7       30.56R WCI -20
WAUPACA        MOSUNNY    0 -13  55 W6        30.58R WCI -12
WAUTOMA        CLOUDY    -3 -16  54 NW12      30.59R WCI -21
WISC RAPIDS    CLOUDY    -4 -15  59 NW8       30.59R WCI -19
CAMP DOUGLAS   SUNNY     -4 -15  59 NW8       30.60R WCI -19
$$

WIZ011>013-019>022-031-037>040-048>050-131600-
NORTHEAST WISCONSIN

CITY           SKY/WX    TMP DP  RH WIND       PRES   REMARKS
ANTIGO         CLOUDY    -8 -14  74 W9        30.47R WCI -25
SHAWANO        SUNNY      0 -10  61 NW6       30.55R WCI -11
OCONTO         SUNNY     -1 -10  65 W8        30.53R WCI -16
STURGEON BAY   SUNNY      0  -9  65 W12G17    30.51R WCI -18
GREEN BAY      SUNNY     -2 -11  65 W13       30.55R WCI -20
MANITOWOC      SUNNY      1  -9  62 NW12      30.53S WCI -16
APPLETON       SUNNY     -4 -15  59 W14       30.52R WCI -24
CLINTONVILLE   SUNNY      0 -13  55 W9        30.56R WCI -16
OSHKOSH        SUNNY     -3 -13  62 NW10      30.56R WCI -20
$$

WIZ032>034-041-042-053>061-131600-
SOUTHWEST WISCONSIN

CITY           SKY/WX    TMP DP  RH WIND       PRES   REMARKS
LA CROSSE      CLOUDY    -2 -14  56 N5        30.65S WCI -12
SPARTA         MOSUNNY   -2 -14  57 N5        30.62S WCI -12
VIROQUA        CLOUDY    -5 -16  59 NW6       30.56S WCI -18
BOSCOBEL       CLOUDY     0 -10  63 VRB3      30.66R
PRAIRIE DU CHI MOSUNNY   -1 -13  55 CALM      30.66S
PLATTEVILLE    CLOUDY     0 -11  60 W6        30.61R WCI -12
$$

WIZ056-057-062-063-064-067-068-131600-
SOUTH CENTRAL WISCONSIN

CITY           SKY/WX    TMP DP  RH WIND       PRES   REMARKS
REEDSBURG      CLOUDY    -3 -14  58 NW7       30.60R WCI -16
BARABOO/DELLS  CLOUDY    -2 -15  53 N5        30.58R WCI -13
LONE ROCK      MOSUNNY    0 -14  51 W6        30.64R WCI -12
MINERAL POINT  CLOUDY     1 -15  46 NW6       30.58R WCI -10
MADISON        SUNNY     -1 -13  56 NW13      30.59R WCI -19
MIDDLETON      SUNNY      1 -11  57 N6        30.59R WCI -11
WATERTOWN      SUNNY      0 -11  59 NW8       30.57S WCI -14
MONROE         SUNNY      3  -9  55 NW8       30.57R WCI -10
JANESVILLE     SUNNY      3 -11  51 NW8       30.58S WCI -10
$$

WIZ051-052-058>065-066-070>072-131600-
SOUTHEAST WISCONSIN

CITY           SKY/WX    TMP DP  RH WIND       PRES   REMARKS
MILWAUKEE      MOSUNNY    2 -11  54 NW12      30.57R WCI -15
WAUKESHA       SUNNY     -2 -13  60 NW12      30.56R WCI -20
MILWAUKEE/TIMM NOT AVBL
RACINE         SUNNY      3 -11  52 W12       30.58R WCI -13
BURLINGTON     SUNNY      1 -12  54 NW10      30.57R WCI -15
KENOSHA        SUNNY      4  -9  55 NW12      30.56S WCI -12
FOND DU LAC    SUNNY     -1 -12  59 NW16      30.56R WCI -21
SHEBOYGAN      SUNNY      0 -11  59 NW10      30.53R WCI -16
WEST BEND      SUNNY      1 -13  51 NW12G20   30.55R WCI -15
JUNEAU         SUNNY     -3 -13  61 NW7       30.57R WCI -16
$$

LSZ147-162-131600-
LAKE SUPERIOR

STATION/POSITION TIME  TEMP    WIND        PRES    WAVE
                       AIR SEA DIR/SP/G            HT/PER
                 (UTC) (F)     (DEG/KT/KT) (MB)    (FT/S)
DEVILS ISLAND    1500    2     260/ 11/ 14 1037.5F
SAXON HARBOR     1440   -1                 1035.6R
$$

LMZ867-665-643>646-131600-
LAKE MICHIGAN

STATION/POSITION TIME  TEMP    WIND        PRES    WAVE
                       AIR SEA DIR/SP/G            HT/PER
                 (UTC) (F)     (DEG/KT/KT) (MB)    (FT/S)
CHAMBERS ISLAND  1400    1     290/  7/ 14 1031.8R
SISTER BAY       1349    3     330/ 21/ 26   N/A
ALGOMA LAKESHORE 1411          320/  7/ 11   N/A
KEWAUNEE LAKESHO 1400   -2     310/ 12/ 16 1032.2R
SHEBOYGAN LAKESH 1500    1     290/ 15/ 18 1036.3R
PORT WASHINGTON  1400    1     290/  9/ 14 1035.2R
MILWAUKEE LAKESH 1410    2     300/ 12/ 15   N/A
KENOSHA   LAKESH 1500    3     310/ 14/ 18 1034.9R
$$

TC  - TEMPERATURE IN CELSIUS
VSB - VISIBILITY IN STATUTE MILES
WCI - WIND CHILL INDEX
HX  - HEAT INDEX




USA.gov is the U.S. government's official web portal to all federal, state and local government web resources and services.